timestamp,wind_dir_avg,wind_spd_avg,wind_spd_max_dir,wind_spd_gust,battery_voltage,lat,long
2023-09-25 00:04:01+00:00,267.0,5.29,265.0,6.34,12.49,47.59359,-54.27349
2023-09-25 00:14:01+00:00,291.0,7.07,294.0,7.99,12.41,47.59359,-54.27349
2023-09-25 00:24:01+00:00,284.0,6.63,286.0,7.38,12.41,47.59359,-54.27349
2023-09-25 00:34:01+00:00,296.0,5.46,300.0,6.32,12.41,47.59359,-54.27349
2023-09-25 00:44:01+00:00,307.0,5.88,307.0,6.93,12.41,47.59359,-54.27349
2023-09-25 00:54:01+00:00,310.0,5.61,311.0,6.47,12.41,47.59359,-54.27349
2023-09-25 01:04:01+00:00,314.0,5.72,323.0,6.45,12.41,47.59359,-54.27349
2023-09-25 01:14:00+00:00,301.0,3.38,305.0,4.13,12.41,47.59359,-54.27349
2023-09-25 01:24:00+00:00,282.0,3.33,281.0,3.81,12.41,47.59359,-54.27349
2023-09-25 01:34:00+00:00,285.0,3.74,289.0,3.97,12.41,47.59359,-54.27349
2023-09-25 01:44:00+00:00,261.0,3.58,263.0,3.83,12.41,47.59359,-54.27349
2023-09-25 01:54:00+00:00,261.0,3.57,260.0,4.01,12.41,47.59359,-54.27349
2023-09-25 02:04:00+00:00,285.0,3.96,288.0,4.3,12.41,47.59359,-54.27349
2023-09-25 02:14:01+00:00,273.0,3.85,271.0,4.23,12.41,47.59359,-54.27349
2023-09-25 02:24:01+00:00,313.0,4.13,316.0,4.92,12.41,47.59359,-54.27349
2023-09-25 02:34:01+00:00,307.0,5.45,310.0,6.41,12.41,47.59359,-54.27349
2023-09-25 02:44:01+00:00,302.0,5.8,303.0,6.31,12.41,47.59359,-54.27349
2023-09-25 02:54:01+00:00,303.0,5.5,308.0,6.0,12.41,47.59359,-54.27349
2023-09-25 03:04:01+00:00,300.0,4.85,305.0,5.67,12.41,47.59359,-54.27349
2023-09-25 03:14:01+00:00,306.0,4.72,302.0,5.25,12.41,47.59359,-54.27349
2023-09-25 03:24:01+00:00,285.0,3.62,288.0,4.25,12.41,47.59359,-54.27349
2023-09-25 03:34:01+00:00,279.0,3.72,275.0,4.1,12.41,47.59359,-54.27349
2023-09-25 03:44:01+00:00,280.0,3.2,281.0,3.38,12.41,47.59359,-54.27349
2023-09-25 03:54:01+00:00,278.0,4.28,280.0,4.59,12.41,47.59359,-54.27349
2023-09-25 04:04:01+00:00,291.0,3.15,300.0,3.59,12.41,47.59359,-54.27349
2023-09-25 04:14:00+00:00,290.0,4.04,289.0,4.57,12.41,47.59359,-54.27349
2023-09-25 04:24:00+00:00,281.0,3.88,277.0,4.44,12.41,47.59359,-54.27349
2023-09-25 04:34:00+00:00,290.0,4.39,291.0,4.95,12.41,47.59359,-54.27349
2023-09-25 04:44:00+00:00,288.0,4.48,292.0,4.87,12.41,47.59359,-54.27349
2023-09-25 04:54:00+00:00,271.0,4.78,270.0,5.49,12.41,47.59359,-54.27349
2023-09-25 05:04:00+00:00,273.0,4.76,275.0,5.14,12.41,47.59359,-54.27349
2023-09-25 05:14:01+00:00,276.0,4.69,279.0,5.25,12.41,47.59359,-54.27349
2023-09-25 05:24:01+00:00,276.0,6.24,272.0,7.65,12.41,47.59359,-54.27349
2023-09-25 05:34:01+00:00,273.0,4.67,273.0,5.15,12.41,47.59359,-54.27349
2023-09-25 05:44:01+00:00,281.0,5.32,280.0,6.35,12.41,47.59359,-54.27349
2023-09-25 05:54:01+00:00,289.0,4.77,294.0,5.22,12.41,47.59359,-54.27349
2023-09-25 06:04:01+00:00,289.0,4.83,284.0,5.5,12.41,47.59359,-54.27349
2023-09-25 06:14:00+00:00,288.0,5.23,291.0,6.16,12.33,47.59359,-54.27349
2023-09-25 06:24:00+00:00,294.0,5.29,298.0,6.78,12.33,47.59359,-54.27349
2023-09-25 06:34:00+00:00,292.0,5.48,280.0,6.17,12.33,47.59359,-54.27349
2023-09-25 06:44:00+00:00,293.0,5.26,288.0,6.65,12.33,47.59359,-54.27349
2023-09-25 06:54:00+00:00,307.0,6.48,310.0,7.24,12.33,47.59359,-54.27349
2023-09-25 07:04:00+00:00,298.0,6.59,299.0,7.9,12.33,47.59359,-54.27349
2023-09-25 07:14:00+00:00,287.0,5.66,288.0,6.19,12.33,47.59359,-54.27349
2023-09-25 07:24:00+00:00,304.0,5.91,307.0,7.05,12.33,47.59359,-54.27349
2023-09-25 07:34:00+00:00,301.0,6.29,302.0,7.29,12.33,47.59359,-54.27349
2023-09-25 07:44:00+00:00,297.0,6.68,299.0,7.65,12.33,47.59359,-54.27349
2023-09-25 07:54:00+00:00,303.0,9.02,307.0,10.63,12.33,47.59359,-54.27349
2023-09-25 08:04:00+00:00,307.0,7.48,308.0,8.5,12.33,47.59359,-54.27349
2023-09-25 08:14:00+00:00,304.0,6.61,308.0,7.47,12.25,47.59359,-54.27349
2023-09-25 08:24:00+00:00,309.0,7.0,322.0,8.86,12.25,47.59359,-54.27349
2023-09-25 08:34:00+00:00,320.0,6.58,314.0,7.09,12.25,47.59359,-54.27349
2023-09-25 08:44:00+00:00,327.0,6.18,322.0,7.86,12.25,47.59359,-54.27349
2023-09-25 08:54:00+00:00,328.0,5.87,329.0,6.04,12.25,47.59359,-54.27349
2023-09-25 09:04:00+00:00,325.0,5.79,327.0,6.21,12.25,47.59359,-54.27349
2023-09-25 09:14:00+00:00,323.0,4.92,327.0,5.75,12.25,47.59359,-54.27349
2023-09-25 09:24:00+00:00,324.0,5.33,329.0,5.7,12.25,47.59359,-54.27349
2023-09-25 09:34:00+00:00,315.0,0.01,323.0,0.0,12.25,47.59359,-54.27349
2023-09-25 09:44:00+00:00,330.0,5.21,333.0,5.7,12.25,47.59359,-54.27349
2023-09-25 09:54:00+00:00,331.0,6.21,332.0,6.34,12.25,47.59359,-54.27349
2023-09-25 10:04:00+00:00,328.0,5.92,327.0,6.23,12.25,47.59359,-54.27349
2023-09-25 10:14:00+00:00,330.0,6.36,333.0,7.58,12.17,47.59359,-54.27349
2023-09-25 10:24:00+00:00,330.0,6.53,330.0,6.92,12.17,47.59359,-54.27349
2023-09-25 10:34:00+00:00,340.0,6.94,344.0,7.89,12.17,47.59359,-54.27349
2023-09-25 10:44:00+00:00,341.0,7.19,343.0,7.92,12.17,47.59359,-54.27349
2023-09-25 10:54:00+00:00,345.0,6.39,342.0,7.27,12.17,47.59359,-54.27349
2023-09-25 11:04:00+00:00,353.0,7.89,354.0,8.97,12.17,47.59359,-54.27349
2023-09-25 11:14:00+00:00,7.0,8.49,6.0,11.17,12.57,47.59359,-54.27349
2023-09-25 11:24:00+00:00,35.0,12.46,31.0,14.18,12.57,47.59359,-54.27349
2023-09-25 11:34:00+00:00,38.0,13.57,34.0,15.68,12.57,47.59359,-54.27349
2023-09-25 11:44:00+00:00,31.0,13.54,37.0,14.86,12.57,47.59359,-54.27349
2023-09-25 11:54:00+00:00,36.0,13.3,40.0,15.14,12.57,47.59359,-54.27349
2023-09-25 12:04:00+00:00,37.0,13.79,42.0,15.09,12.57,47.59359,-54.27349
2023-09-25 12:14:01+00:00,31.0,12.87,25.0,14.44,13.29,47.59359,-54.27349
2023-09-25 12:24:01+00:00,35.0,11.53,34.0,14.48,13.29,47.59359,-54.27349
2023-09-25 12:34:01+00:00,32.0,11.75,27.0,12.95,13.29,47.59359,-54.27349
2023-09-25 12:44:01+00:00,28.0,12.23,32.0,13.49,13.29,47.59359,-54.27349
2023-09-25 12:54:01+00:00,32.0,13.22,37.0,14.93,13.29,47.59359,-54.27349
2023-09-25 13:04:01+00:00,32.0,12.8,27.0,14.45,13.29,47.59359,-54.27349
2023-09-25 13:14:01+00:00,32.0,13.37,44.0,16.25,13.37,47.59359,-54.27349
2023-09-25 13:24:01+00:00,36.0,12.85,45.0,15.95,13.37,47.59359,-54.27349
2023-09-25 13:34:01+00:00,41.0,12.95,49.0,14.96,13.37,47.59359,-54.27349
2023-09-25 13:44:01+00:00,53.0,11.12,56.0,13.65,13.37,47.59359,-54.27349
2023-09-25 13:54:01+00:00,36.0,11.38,44.0,12.89,13.37,47.59359,-54.27349
2023-09-25 14:04:01+00:00,42.0,10.48,41.0,11.73,13.37,47.59359,-54.27349
2023-09-25 14:14:00+00:00,31.0,9.63,32.0,10.65,13.68,47.59359,-54.27349
2023-09-25 14:24:00+00:00,33.0,10.99,33.0,12.7,13.68,47.59359,-54.27349
2023-09-25 14:34:00+00:00,43.0,10.42,41.0,11.58,13.68,47.59359,-54.27349
2023-09-25 14:44:00+00:00,38.0,9.55,36.0,11.59,13.68,47.59359,-54.27349
2023-09-25 14:54:00+00:00,46.0,10.38,51.0,11.36,13.68,47.59359,-54.27349
2023-09-25 15:04:00+00:00,41.0,9.27,42.0,10.75,13.68,47.59359,-54.27349
2023-09-25 15:14:00+00:00,40.0,9.05,36.0,10.26,14.0,47.59359,-54.27349
2023-09-25 15:24:00+00:00,43.0,8.75,40.0,10.66,14.0,47.59359,-54.27349
2023-09-25 15:34:00+00:00,39.0,8.02,35.0,9.36,14.0,47.59359,-54.27349
2023-09-25 15:44:00+00:00,46.0,8.43,45.0,9.99,14.0,47.59359,-54.27349
2023-09-25 15:54:00+00:00,45.0,8.69,50.0,9.79,14.0,47.59359,-54.27349
2023-09-25 16:04:00+00:00,38.0,8.59,48.0,9.96,14.0,47.59359,-54.27349
2023-09-25 16:14:00+00:00,26.0,9.88,26.0,11.17,13.68,47.59359,-54.27349
2023-09-25 16:24:00+00:00,26.0,8.34,26.0,9.52,13.68,47.59359,-54.27349
2023-09-25 16:34:00+00:00,27.0,9.79,28.0,10.64,13.68,47.59359,-54.27349
2023-09-25 16:44:00+00:00,16.0,9.95,14.0,10.88,13.68,47.59359,-54.27349
2023-09-25 16:54:00+00:00,14.0,8.11,16.0,9.45,13.68,47.59359,-54.27349
2023-09-25 17:04:00+00:00,20.0,6.95,19.0,8.01,13.68,47.59359,-54.27349
2023-09-25 17:14:00+00:00,38.0,6.02,42.0,7.52,13.53,47.59359,-54.27349
2023-09-25 17:24:00+00:00,9.0,5.24,12.0,6.33,13.53,47.59359,-54.27349
2023-09-25 17:34:00+00:00,21.0,7.61,18.0,8.93,13.53,47.59359,-54.27349
2023-09-25 17:44:00+00:00,18.0,5.86,18.0,7.16,13.53,47.59359,-54.27349
2023-09-25 17:54:00+00:00,17.0,6.45,12.0,8.98,13.53,47.59359,-54.27349
2023-09-25 18:04:00+00:00,18.0,8.3,21.0,9.98,13.53,47.59359,-54.27349
2023-09-25 18:14:00+00:00,27.0,6.75,25.0,8.28,14.4,47.59359,-54.27349
2023-09-25 18:24:00+00:00,1.0,8.51,3.0,9.52,14.4,47.59359,-54.27349
2023-09-25 18:34:00+00:00,7.0,7.26,17.0,8.37,14.4,47.59359,-54.27349
2023-09-25 18:44:00+00:00,22.0,7.83,22.0,8.68,14.4,47.59359,-54.27349
2023-09-25 18:54:00+00:00,16.0,9.25,13.0,11.29,14.4,47.59359,-54.27349
2023-09-25 19:04:00+00:00,18.0,8.97,15.0,9.77,14.4,47.59359,-54.27349
2023-09-25 19:14:01+00:00,18.0,10.13,18.0,11.52,13.84,47.59359,-54.27349
2023-09-25 19:24:01+00:00,9.0,7.42,3.0,8.73,13.84,47.59359,-54.27349
2023-09-25 19:34:01+00:00,21.0,6.58,20.0,8.13,13.84,47.59359,-54.27349
2023-09-25 19:44:01+00:00,11.0,7.24,16.0,8.81,13.84,47.59359,-54.27349
2023-09-25 19:54:01+00:00,17.0,8.59,20.0,10.9,13.84,47.59359,-54.27349
2023-09-25 20:04:01+00:00,3.0,8.22,2.0,9.75,13.84,47.59359,-54.27349
2023-09-25 20:14:01+00:00,14.0,7.63,12.0,9.72,13.68,47.59359,-54.27349
2023-09-25 20:24:01+00:00,23.0,8.23,18.0,9.24,13.68,47.59359,-54.27349
2023-09-25 20:34:01+00:00,29.0,6.42,35.0,7.39,13.68,47.59359,-54.27349
2023-09-25 20:44:01+00:00,6.0,6.64,1.0,8.08,13.68,47.59359,-54.27349
2023-09-25 20:54:01+00:00,14.0,8.91,20.0,10.04,13.68,47.59359,-54.27349
2023-09-25 21:04:01+00:00,21.0,7.53,29.0,7.9,13.68,47.59359,-54.27349
2023-09-25 21:14:00+00:00,13.0,8.05,15.0,9.04,13.21,47.59359,-54.27349
2023-09-25 21:24:00+00:00,16.0,6.51,14.0,8.01,13.21,47.59359,-54.27349
2023-09-25 21:34:00+00:00,13.0,8.7,14.0,9.3,13.21,47.59359,-54.27349
2023-09-25 21:44:00+00:00,16.0,8.08,16.0,8.09,13.21,47.59359,-54.27349
2023-09-25 21:54:00+00:00,34.0,8.95,32.0,9.59,13.21,47.59359,-54.27349
2023-09-25 22:04:00+00:00,315.0,0.01,13.0,0.0,13.21,47.59359,-54.27349
2023-09-25 22:14:00+00:00,19.0,7.02,19.0,7.03,12.65,47.59359,-54.27349
2023-09-25 22:24:00+00:00,33.0,9.51,32.0,9.89,12.65,47.59359,-54.27349
2023-09-25 22:34:00+00:00,27.0,7.31,22.0,7.87,12.65,47.59359,-54.27349
2023-09-25 22:44:00+00:00,39.0,7.4,38.0,8.09,12.65,47.59359,-54.27349
2023-09-25 22:54:00+00:00,16.0,6.88,17.0,7.75,12.65,47.59359,-54.27349
2023-09-25 23:04:00+00:00,10.0,7.09,17.0,9.21,12.65,47.59359,-54.27349
2023-09-25 23:14:00+00:00,18.0,7.61,18.0,9.72,12.41,47.59359,-54.27349
2023-09-25 23:24:00+00:00,22.0,9.91,15.0,10.6,12.41,47.59359,-54.27349
2023-09-25 23:34:00+00:00,17.0,6.93,15.0,8.33,12.41,47.59359,-54.27349
2023-09-25 23:44:00+00:00,22.0,6.03,14.0,7.08,12.41,47.59359,-54.27349
2023-09-25 23:54:00+00:00,25.0,7.24,25.0,8.14,12.41,47.59359,-54.27349
